Lid_Strength_Index
1 -0 -1 -2 -2 -2 -2 -2 -2 -2 -2 -2 -2 -2 -2 -2 -2 -2 -2 -2 -2 -2 -2 -2 -2 -2 -2 -2 -2 -2 -2 -2 -2 -2 -2 -2 -2 -2 -2 -2 -2 -1 -2
0 -0 -1 -1 -2 -2 -2 -2 -2 -2 -2 -2 -2 -2 -2 -2 -2 -2 -2 -2 -2 -2 -2 -2 -2 -2 -2 -2 -2 -2 -2 -2 -2 -2 -1 -1 -1 -2 -2 -2 -2 -1 -2
0 -0 -0 -1 -1 -2 -2 -2 -2 -2 -2 -2 -2 -2 -2 -2 -2 -2 -2 -2 -2 -2 -2 -2 -2 -2 -2 -2 -2 -2 -2 -2 -2 -2 -1 -0 -1 -2 -2 -2 -2 -2 -2
-0 -0 -0 -1 -1 -2 -2 -2 -2 -2 -2 -2 -2 -2 -2 -2 -2 -2 -2 -2 -2 -2 -2 -2 -2 -2 -2 -2 -2 -2 -2 -2 -1 -1 -0 -0 -1 -2 -2 -2 -3 -2 -2
0 -0 -0 -1 -1 -1 -1 -2 -2 -2 -2 -2 -2 -2 -2 -2 -2 -2 -2 -2 -2 -2 -2 -2 -2 -2 -2 -2 -2 -2 -2 -1 -1 -1 -0 -0 -1 -2 -2 -2 -2 -2 -2
0 -0 -0 -1 -1 -1 -1 -1 -2 -2 -2 -2 -2 -2 -2 -3 -2 -2 -2 -2 -2 -2 -2 -2 -2 -2 -2 -2 -2 -2 -2 -1 -0 -1 -1 -1 -0 -2 -2 -2 -2 -2 -2
0 -0 -0 -1 -1 -1 -1 -1 -2 -2 -2 -2 -2 -2 -2 -2 -2 -2 -2 -2 -2 -2 -2 -2 -2 -2 -2 -2 -2 -2 -2 -1 -0 -1 -1 -1 -1 -2 -2 -2 -2 -2 -2
0 -0 -0 -0 -1 -1 -1 -1 -1 -1 -2 -2 -2 -2 -2 -2 -2 -2 -3 -3 -2 -3 -2 -2 -2 -2 -2 -2 -2 -2 -1 -1 -0 -1 -1 -1 -2 -2 -2 -2 -2 -2 -2
-0 -0 -0 -0 -0 -0 -1 -1 -1 -1 -1 -2 -2 -2 -2 -2 -2 -2 -3 -3 -3 -2 -3 -3 -2 -2 -2 -2 -2 -2 -2 -0 0 -1 -1 -1 -3 -2 -2 -2 -2 -2 -2
0 -0 -0 -0 -0 -0 -0 -0 -1 -1 -1 -1 -1 -1 -1 -1 -2 -2 -3 -2 -3 -3 -3 -4 -3 -2 -2 -2 -2 -2 -2 -1 1 0 -0 -1 -2 -2 -2 -1 -1 -2 -2
1 0 0 -0 -0 -0 -0 -0 -0 0 -0 -0 -1 -0 -0 0 -0 -0 -1 -1 -2 -3 -3 -4 -3 -3 -2 -2 -2 -2 -1 1 1 1 0 -2 -2 -2 -2 -2 -1 -1 -2
2 1 0 0 0 -0 -0 0 0 -0 -0 -0 0 1 1 1 0 -0 -0 -1 -3 -3 -3 -3 -3 -2 -1 0 0 -0 0 1 1 1 -0 -3 -2 -2 -2 -1 -1 -1 -1
2 1 1 1 1 1 1 1 1 0 1 1 2 2 2 1 1 1 1 1 0 0 -1 -1 0 1 1 1 1 1 1 1 1 0 -1 -2 -2 -2 -2 -2 -1 -1 -0
2 1 1 1 1 1 1 1 0 1 1 2 2 3 2 2 2 2 2 2 1 1 1 2 2 2 2 1 1 1 2 2 1 1 -1 -2 -2 -2 -2 -2 -2 -1 -1
2 2 1 1 1 1 1 1 0 1 1 2 2 2 2 2 3 2 3 3 3 2 2 2 2 2 2 2 1 1 2 2 1 1 -0 -1 -2 -2 -2 -2 -2 -1 -1
2 2 1 1 1 1 1 1 0 1 1 1 2 2 2 2 3 3 3 3 2 2 2 3 2 2 2 2 1 1 2 1 2 2 2 -0 -2 -2 -2 -2 -2 -2 -2
2 2 2 1 1 0 1 1 1 0 1 1 1 2 2 1 3 4 3 3 3 3 2 2 2 2 3 2 2 1 1 1 1 2 2 -0 -0 -1 -2 -2 -1 -1 -1
3 3 2 1 1 1 1 1 1 1 1 1 1 1 2 2 2 3 4 3 3 3 2 3 3 3 3 3 3 2 1 1 1 2 1 0 0 -0 -1 -2 -2 -2 -1
4 3 3 2 2 2 2 1 1 1 1 1 1 1 2 2 3 3 3 3 4 4 3 3 3 3 3 4 3 2 2 1 1 1 1 1 0 -0 0 -1 -1 -1 -1
8 7 4 3 3 3 3 3 3 2 2 1 1 1 2 2 2 3 3 3 3 3 3 4 5 5 5 4 3 4 3 1 2 2 2 1 1 1 1 2 2 1 -1
10 10 10 8 7 4 3 3 2 2 3 3 2 1 2 2 2 3 3 3 3 3 3 3 4 4 5 5 6 6 5 4 3 3 2 2 2 1 2 3 3 3 2
12 12 10 9 9 8 6 5 2 2 2 3 2 2 2 2 2 2 3 3 4 3 3 3 3 4 5 5 5 6 8 7 6 5 3 2 3 2 3 3 4 4 3
13 13 12 10 8 7 6 5 5 4 4 4 4 4 3 2 3 2 2 3 4 3 3 3 3 3 4 4 4 5 8 9 8 7 6 5 5 3 4 4 4 4 4
13 11 9 8 7 5 5 3 4 4 6 6 5 4 3 2 3 3 3 3 4 3 3 3 2 3 3 4 4 4 4 6 7 8 8 7 6 6 5 5 4 4 4
13 12 10 8 7 7 6 5 3 4 3 4 4 4 4 3 3 3 3 3 3 4 3 2 2 3 2 3 3 5 4 6 5 6 7 6 7 7 6 6 6 4 4
13 12 11 10 9 8 7 5 4 3 4 4 4 3 3 3 3 2 2 2 3 3 2 2 2 2 2 2 2 2 3 4 7 6 7 8 7 6 7 6 6 6 6